Time,TemperatureF,DewpointF,PressureIn,WindDirection,WindDirectionDegrees,WindSpeedMPH,WindSpeedGustMPH,Humidity,HourlyPrecipIn,Conditions,Clouds,dailyrainin,SolarRadiationWatts/m^2,SoftwareType,DateUTC
2013-04-12 00:05:00,71.6,70.0,29.77,SW,219,0.0,1.0,93,0.00,,,0.00,0,weatherlink.com 1.10,2013-04-12 04:05:00,
2013-04-12 00:35:00,72.0,70.0,29.78,SW,216,0.0,2.0,94,0.00,,,0.00,0,weatherlink.com 1.10,2013-04-12 04:35:00,
2013-04-12 00:50:00,72.0,70.0,29.79,SW,215,0.0,4.0,94,0.00,,,0.00,0,weatherlink.com 1.10,2013-04-12 04:50:00,
2013-04-12 01:06:00,72.0,70.0,29.80,SW,215,0.0,1.0,94,0.00,,,0.00,0,weatherlink.com 1.10,2013-04-12 05:06:00,
2013-04-12 01:20:00,72.0,70.0,29.80,SW,215,0.0,1.0,94,0.00,,,0.00,0,weatherlink.com 1.10,2013-04-12 05:20:00,
2013-04-12 01:35:00,71.8,70.0,29.80,SW,215,0.0,2.0,94,0.00,,,0.00,0,weatherlink.com 1.10,2013-04-12 05:35:00,
2013-04-12 01:51:00,72.0,70.0,29.80,SW,218,0.0,3.0,94,0.00,,,0.00,0,weatherlink.com 1.10,2013-04-12 05:51:00,
2013-04-12 02:06:00,72.0,71.0,29.79,SW,218,0.0,2.0,95,0.00,,,0.00,0,weatherlink.com 1.10,2013-04-12 06:06:00,
2013-04-12 02:22:00,72.0,71.0,29.79,SW,216,0.0,4.0,95,0.00,,,0.00,0,weatherlink.com 1.10,2013-04-12 06:22:00,
2013-04-12 02:37:00,72.1,71.0,29.79,SSW,202,0.0,5.0,95,0.00,,,0.00,0,weatherlink.com 1.10,2013-04-12 06:37:00,
2013-04-12 02:52:00,72.3,71.0,29.79,South,190,0.0,7.0,95,0.00,,,0.00,0,weatherlink.com 1.10,2013-04-12 06:52:00,
2013-04-12 03:07:00,72.3,71.0,29.78,SSW,194,0.0,3.0,95,0.00,,,0.00,0,weatherlink.com 1.10,2013-04-12 07:07:00,
2013-04-12 03:22:00,72.3,71.0,29.78,SSW,195,3.0,4.0,95,0.00,,,0.00,0,weatherlink.com 1.10,2013-04-12 07:22:00,
2013-04-12 03:37:00,72.3,71.0,29.77,SSW,195,0.0,2.0,95,0.00,,,0.00,0,weatherlink.com 1.10,2013-04-12 07:37:00,
2013-04-12 03:52:00,72.5,71.0,29.76,South,190,0.0,4.0,95,0.00,,,0.00,0,weatherlink.com 1.10,2013-04-12 07:52:00,
2013-04-12 04:07:00,72.5,71.0,29.76,SSW,194,6.0,6.0,96,0.00,,,0.00,0,weatherlink.com 1.10,2013-04-12 08:07:00,
2013-04-12 04:22:00,72.5,71.0,29.75,SSE,167,0.0,6.0,96,0.00,,,0.00,0,weatherlink.com 1.10,2013-04-12 08:22:00,
2013-04-12 04:37:00,72.5,71.0,29.73,SW,232,0.0,8.0,96,0.00,,,0.00,0,weatherlink.com 1.10,2013-04-12 08:37:00,
2013-04-12 04:52:00,72.5,71.0,29.72,South,185,2.0,7.0,96,0.00,,,0.00,0,weatherlink.com 1.10,2013-04-12 08:52:00,
2013-04-12 05:07:00,72.5,71.0,29.71,SW,223,1.0,6.0,96,0.00,,,0.00,0,weatherlink.com 1.10,2013-04-12 09:07:00,
2013-04-12 05:22:00,72.7,72.0,29.72,SE,130,0.0,9.0,96,0.00,,,0.00,0,weatherlink.com 1.10,2013-04-12 09:22:00,
2013-04-12 05:38:00,72.7,72.0,29.70,SW,232,3.0,9.0,96,0.00,,,0.00,0,weatherlink.com 1.10,2013-04-12 09:38:00,
2013-04-12 06:09:00,73.0,72.0,29.69,SSE,163,0.0,8.0,95,0.00,,,0.00,0,weatherlink.com 1.10,2013-04-12 10:09:00,
2013-04-12 06:23:00,72.8,71.0,29.68,SSE,157,4.0,15.0,95,0.00,,,0.00,0,weatherlink.com 1.10,2013-04-12 10:23:00,
2013-04-12 06:38:00,72.8,71.0,29.68,SW,229,0.0,11.0,95,0.00,,,0.00,0,weatherlink.com 1.10,2013-04-12 10:38:00,
2013-04-12 06:54:00,73.0,71.0,29.69,South,182,0.0,13.0,94,0.00,,,0.00,0,weatherlink.com 1.10,2013-04-12 10:54:00,
2013-04-12 07:09:00,72.8,71.0,29.69,SW,234,7.0,9.0,94,0.00,,,0.00,0,weatherlink.com 1.10,2013-04-12 11:09:00,
2013-04-12 07:24:00,72.8,71.0,29.70,South,180,6.0,12.0,93,0.00,,,0.00,9,weatherlink.com 1.10,2013-04-12 11:24:00,
2013-04-12 07:38:00,73.0,71.0,29.70,SW,219,0.0,7.0,93,0.00,,,0.00,49,weatherlink.com 1.10,2013-04-12 11:38:00,
2013-04-12 07:54:00,73.2,71.0,29.72,ENE,70,0.0,9.0,93,0.00,,,0.00,30,weatherlink.com 1.10,2013-04-12 11:54:00,
2013-04-12 08:09:00,73.5,71.0,29.72,WSW,240,2.0,7.0,92,0.00,,,0.00,76,weatherlink.com 1.10,2013-04-12 12:09:00,
2013-04-12 08:24:00,73.9,72.0,29.72,West,260,1.0,6.0,92,0.00,,,0.00,49,weatherlink.com 1.10,2013-04-12 12:24:00,
2013-04-12 08:39:00,74.2,72.0,29.73,SW,222,0.0,12.0,91,0.00,,,0.00,60,weatherlink.com 1.10,2013-04-12 12:39:00,
2013-04-12 08:54:00,74.6,72.0,29.72,SSW,198,6.0,7.0,90,0.00,,,0.00,63,weatherlink.com 1.10,2013-04-12 12:54:00,
2013-04-12 09:08:00,74.7,71.0,29.73,SW,219,0.0,12.0,89,0.00,,,0.00,86,weatherlink.com 1.10,2013-04-12 13:08:00,
2013-04-12 09:23:00,75.1,71.0,29.73,NW,315,1.0,7.0,88,0.00,,,0.00,118,weatherlink.com 1.10,2013-04-12 13:23:00,
2013-04-12 09:40:00,76.0,72.0,29.73,SSW,209,4.0,11.0,87,0.00,,,0.00,221,weatherlink.com 1.10,2013-04-12 13:40:00,
2013-04-12 09:57:00,76.8,72.0,29.73,South,191,4.0,9.0,85,0.00,,,0.00,149,weatherlink.com 1.10,2013-04-12 13:57:00,
2013-04-12 10:10:00,77.7,72.0,29.73,South,185,2.0,7.0,83,0.00,,,0.00,239,weatherlink.com 1.10,2013-04-12 14:10:00,
2013-04-12 10:25:00,78.8,73.0,29.73,SSE,161,3.0,8.0,81,0.00,,,0.00,710,weatherlink.com 1.10,2013-04-12 14:25:00,
2013-04-12 10:40:00,80.3,73.0,29.73,South,176,1.0,9.0,77,0.00,,,0.00,652,weatherlink.com 1.10,2013-04-12 14:40:00,
2013-04-12 10:55:00,81.6,72.0,29.73,SSW,202,0.0,9.0,73,0.00,,,0.00,666,weatherlink.com 1.10,2013-04-12 14:55:00,
2013-04-12 11:10:00,82.6,71.0,29.73,SSW,197,1.0,12.0,69,0.00,,,0.00,761,weatherlink.com 1.10,2013-04-12 15:10:00,
2013-04-12 11:25:00,83.2,72.0,29.74,SSW,212,0.0,11.0,69,0.00,,,0.00,840,weatherlink.com 1.10,2013-04-12 15:25:00,
2013-04-12 11:40:00,83.4,71.0,29.75,SW,229,1.0,12.0,67,0.00,,,0.00,204,weatherlink.com 1.10,2013-04-12 15:40:00,
2013-04-12 11:55:00,83.6,71.0,29.75,SSE,167,2.0,11.0,66,0.00,,,0.00,294,weatherlink.com 1.10,2013-04-12 15:55:00,
2013-04-12 12:10:00,84.0,71.0,29.75,SSW,201,0.0,12.0,64,0.00,,,0.00,622,weatherlink.com 1.10,2013-04-12 16:10:00,
2013-04-12 12:25:00,84.7,70.0,29.74,SE,142,5.0,11.0,62,0.00,,,0.00,288,weatherlink.com 1.10,2013-04-12 16:25:00,
2013-04-12 12:40:00,85.3,70.0,29.73,SSE,147,3.0,12.0,60,0.00,,,0.00,255,weatherlink.com 1.10,2013-04-12 16:40:00,
2013-04-12 12:55:00,85.1,70.0,29.73,SSW,212,1.0,11.0,60,0.00,,,0.00,359,weatherlink.com 1.10,2013-04-12 16:55:00,
2013-04-12 13:10:00,84.7,70.0,29.73,SW,232,0.0,12.0,62,0.00,,,0.00,751,weatherlink.com 1.10,2013-04-12 17:10:00,
2013-04-12 13:27:00,85.5,68.0,29.73,SSE,154,6.0,15.0,57,0.00,,,0.00,304,weatherlink.com 1.10,2013-04-12 17:27:00,
2013-04-12 13:42:00,85.7,69.0,29.73,South,178,0.0,9.0,58,0.00,,,0.00,765,weatherlink.com 1.10,2013-04-12 17:42:00,
2013-04-12 13:57:00,86.7,68.0,29.72,WSW,249,1.0,13.0,54,0.00,,,0.00,784,weatherlink.com 1.10,2013-04-12 17:57:00,
2013-04-12 14:12:00,86.5,66.0,29.73,South,181,3.0,14.0,51,0.00,,,0.00,596,weatherlink.com 1.10,2013-04-12 18:12:00,
2013-04-12 14:27:00,86.7,66.0,29.73,SW,226,8.0,20.0,50,0.00,,,0.00,631,weatherlink.com 1.10,2013-04-12 18:27:00,
2013-04-12 15:27:00,86.5,66.0,29.71,WNW,296,6.0,16.0,51,0.00,,,0.00,457,weatherlink.com 1.10,2013-04-12 19:27:00,
2013-04-12 15:42:00,86.3,67.0,29.71,WSW,249,0.0,14.0,52,0.00,,,0.00,413,weatherlink.com 1.10,2013-04-12 19:42:00,
2013-04-12 15:57:00,85.7,67.0,29.71,WSW,238,1.0,13.0,53,0.00,,,0.00,330,weatherlink.com 1.10,2013-04-12 19:57:00,
2013-04-12 16:12:00,85.7,66.0,29.70,South,175,5.0,15.0,52,0.00,,,0.00,251,weatherlink.com 1.10,2013-04-12 20:12:00,
2013-04-12 16:27:00,85.1,67.0,29.70,South,175,4.0,12.0,54,0.00,,,0.00,383,weatherlink.com 1.10,2013-04-12 20:27:00,
2013-04-12 16:42:00,84.7,67.0,29.70,SW,215,0.0,15.0,56,0.00,,,0.00,323,weatherlink.com 1.10,2013-04-12 20:42:00,
2013-04-12 16:57:00,84.0,67.0,29.70,South,187,7.0,14.0,56,0.00,,,0.00,236,weatherlink.com 1.10,2013-04-12 20:57:00,
2013-04-12 17:11:00,83.4,67.0,29.71,WNW,302,0.0,14.0,57,0.00,,,0.00,271,weatherlink.com 1.10,2013-04-12 21:11:00,
2013-04-12 17:27:00,82.8,66.0,29.71,WSW,246,4.0,13.0,57,0.00,,,0.00,172,weatherlink.com 1.10,2013-04-12 21:27:00,
2013-04-12 17:43:00,82.0,66.0,29.72,SW,216,0.0,15.0,59,0.00,,,0.00,97,weatherlink.com 1.10,2013-04-12 21:43:00,
2013-04-12 17:57:00,81.6,66.0,29.72,SW,227,0.0,12.0,60,0.00,,,0.00,155,weatherlink.com 1.10,2013-04-12 21:57:00,
2013-04-12 18:13:00,81.1,66.0,29.73,WSW,239,4.0,13.0,60,0.00,,,0.00,81,weatherlink.com 1.10,2013-04-12 22:13:00,
2013-04-12 18:28:00,80.7,66.0,29.73,SW,231,0.0,7.0,62,0.00,,,0.00,105,weatherlink.com 1.10,2013-04-12 22:28:00,
2013-04-12 18:43:00,79.9,65.0,29.73,SSE,158,3.0,8.0,61,0.00,,,0.00,63,weatherlink.com 1.10,2013-04-12 22:43:00,
2013-04-12 18:58:00,79.2,65.0,29.74,SSW,204,0.0,9.0,61,0.00,,,0.00,51,weatherlink.com 1.10,2013-04-12 22:58:00,
2013-04-12 19:14:00,78.6,64.0,29.74,SW,223,0.0,13.0,61,0.00,,,0.00,32,weatherlink.com 1.10,2013-04-12 23:14:00,
2013-04-12 19:28:00,77.9,64.0,29.74,SE,130,0.0,8.0,62,0.00,,,0.00,12,weatherlink.com 1.10,2013-04-12 23:28:00,
2013-04-12 19:43:00,77.6,64.0,29.75,SSW,204,2.0,5.0,63,0.00,,,0.00,0,weatherlink.com 1.10,2013-04-12 23:43:00,
2013-04-12 19:58:00,77.2,65.0,29.75,SSW,196,3.0,7.0,65,0.00,,,0.00,0,weatherlink.com 1.10,2013-04-12 23:58:00,
2013-04-12 20:14:00,76.8,65.0,29.75,SSW,193,0.0,5.0,66,0.00,,,0.00,0,weatherlink.com 1.10,2013-04-13 00:14:00,
2013-04-12 20:28:00,76.5,65.0,29.76,SSW,200,0.0,5.0,67,0.00,,,0.00,0,weatherlink.com 1.10,2013-04-13 00:28:00,
2013-04-12 20:43:00,76.1,64.0,29.76,South,188,2.0,5.0,67,0.00,,,0.00,0,weatherlink.com 1.10,2013-04-13 00:43:00,
2013-04-12 20:58:00,76.0,65.0,29.77,SSW,192,0.0,4.0,68,0.00,,,0.00,0,weatherlink.com 1.10,2013-04-13 00:58:00,
2013-04-12 21:13:00,76.0,65.0,29.78,South,189,0.0,4.0,69,0.00,,,0.00,0,weatherlink.com 1.10,2013-04-13 01:13:00,
2013-04-12 21:28:00,75.8,65.0,29.79,SSW,195,0.0,1.0,69,0.00,,,0.00,0,weatherlink.com 1.10,2013-04-13 01:28:00,
2013-04-12 21:43:00,75.6,65.0,29.79,SW,235,0.0,5.0,69,0.00,,,0.00,0,weatherlink.com 1.10,2013-04-13 01:43:00,
2013-04-12 21:58:00,75.4,65.0,29.80,WSW,244,0.0,4.0,70,0.00,,,0.00,0,weatherlink.com 1.10,2013-04-13 01:58:00,
2013-04-12 22:15:00,75.1,65.0,29.79,WSW,244,0.0,2.0,71,0.00,,,0.00,0,weatherlink.com 1.10,2013-04-13 02:15:00,
2013-04-12 22:29:00,74.7,65.0,29.79,WSW,244,0.0,1.0,71,0.00,,,0.00,0,weatherlink.com 1.10,2013-04-13 02:29:00,
2013-04-12 22:45:00,74.4,65.0,29.79,WSW,244,0.0,0.0,72,0.00,,,0.00,0,weatherlink.com 1.10,2013-04-13 02:45:00,
2013-04-12 23:00:00,73.9,65.0,29.79,WSW,244,0.0,0.0,73,0.00,,,0.00,0,weatherlink.com 1.10,2013-04-13 03:00:00,
2013-04-12 23:15:00,73.5,65.0,29.79,WSW,244,0.0,0.0,74,0.00,,,0.00,0,weatherlink.com 1.10,2013-04-13 03:15:00,
2013-04-12 23:30:00,73.3,65.0,29.79,WSW,244,0.0,1.0,76,0.00,,,0.00,0,weatherlink.com 1.10,2013-04-13 03:30:00,
2013-04-12 23:45:00,73.2,66.0,29.80,WSW,244,0.0,1.0,77,0.00,,,0.00,0,weatherlink.com 1.10,2013-04-13 03:45:00,